Voltar ao catálogo

CZ-6A DEB

AtivoPO
NORAD 64643·DEBRIS·🇨🇳 China

Lançado Aug 6, 2024 de Taiyuan Satellite Launch Center

Loading…

Próximas Passagens (próximas 24 horas)

TLE

AtualizadoSource: Space-Track

Época: Sep 14, 2026, 11:31 UTC

1 64643U 24140AEH 26257.48002502  .00001674  00000-0  66101-3 0  9992
2 64643  89.1402 276.9539 0069737 295.0942  64.3026 14.27355488102734

Acompanhe CZ-6A DEB em tempo real com AllMySat

Download on the App Store